sat.trackr.live / text

‹ back to catalog

STARLINK-32262

NORAD 60938 · 2024-155Q

PAYLOAD ACTIVE UNKNOWN

§ Identity

Operator
Country
US
Launch date
2024-08-31
Launch site
AFWTR
Launch vehicle
Mass (kg)
RCS (m²)

Purposes: comms

External: N2YO · Heavens-Above · Gunter

§ Orbital elements

Epoch: 2026-05-25T02:29:00.257280Z

Period
91.26 min
Inclination
53.1392°
Eccentricity
0.0008948
Mean motion
15.77869085 rev/d
Perigee alt
330.5 km
Apogee alt
342.5 km
Semi-major
6,714.6 km
B*
8.3226e-4
RAAN
96.1538°
Arg perigee
38.3330°
Mean anomaly
321.8325°
Rev number
9,862

§ Raw data

STARLINK-322621 60938U 24155Q   26145.10347520  .00145428  00000+0  83226-3 0  99902 60938  53.1392  96.1538 0008948  38.3330 321.8325 15.77869085 98627

JSON: /api/v1/satellites/60938 · /tle

For live sub-satellite position, see the globe view (requires WebGL).

§ Visibility from observer

Set your observer location to see the next 7 days of passes ≥ 10°. The values pass through the URL so the page stays shareable.

No JS? Fill the form by hand. The geolocation button needs JavaScript.